Location: Blangy-Tronville
(49.8790°N, 2.4226°E)
Time: 06:33:09
(UTC+00:00)

SJ 16-02 - Pass Details

Date: 18 November 2025
Orbit: 585 x 594 km, 75.0° (Epoch: 06 December)

Event Time Altitude Azimuth Distance (km) Brightness Sun altitude
Rises 19:56:20 0° 255° (WSW) 2,833 5.5 -37.2°
Reaches altitude 10° 19:59:36 10° 281° (WNW) 1,935 4.6 -37.7°
Enters shadow 20:00:39 13° 295° (WNW) 1,769 4.4 -37.9°
